| time (UTC) | temp F | wind direction | speed MPH | gust MPH | rain 1hr in | rain 24hr in | rain mn in | humidity % | barometer mb |
| 20260505003800 | 48 | 91 | 0.0 | 1.0 | 0.00 | 0.00 | 0.00 | 43 | 1013.9 |
| 20260505003257 | 48 | 89 | 0.0 | 0.0 | 0.00 | 0.00 | 0.00 | 44 | 1014.0 |
| 20260505002753 | 47 | 89 | 0.0 | 0.0 | 0.00 | 0.00 | 0.00 | 48 | 1014.2 |
| 20260505002250 | 47 | 88 | 0.0 | 0.0 | 0.00 | 0.00 | 0.00 | 46 | 1014.2 |
| 20260505001748 | 46 | 74 | 0.0 | 0.0 | 0.00 | 0.00 | 0.00 | 48 | 1014.2 |
| 20260505001245 | 46 | 80 | 0.0 | 0.0 | 0.00 | 0.00 | 0.00 | 48 | 1014.4 |
| 20260505000742 | 46 | 76 | 1.0 | 2.0 | 0.00 | 0.00 | 0.00 | 48 | 1014.4 |
| 20260505000240 | 46 | 42 | 2.0 | 3.0 | 0.00 | 0.00 | 0.00 | 53 | 1014.5 |
| 20260504235736 | 45 | 58 | 2.0 | 2.0 | 0.00 | 0.00 | 0.00 | 54 | 1014.5 |
| 20260504235232 | 44 | 349 | 3.0 | 4.0 | 0.00 | 0.00 | 0.00 | 55 | 1014.8 |
| 20260504234730 | 44 | 337 | 3.0 | 8.0 | 0.00 | 0.00 | 0.00 | 60 | 1014.9 |
| 20260504234227 | 43 | 66 | 2.0 | 7.0 | 0.00 | 0.00 | 0.00 | 68 | 1015.2 |
| 20260504233724 | 43 | 43 | 2.0 | 8.0 | 0.00 | 0.00 | 0.00 | 68 | 1015.3 |
| 20260504233219 | 43 | 76 | 1.0 | 8.0 | 0.00 | 0.00 | 0.00 | 68 | 1014.9 |
| 20260504232717 | 43 | 338 | 7.0 | 9.0 | 0.00 | 0.00 | 0.00 | 67 | 1015.2 |
| 20260504232213 | 44 | 343 | 3.0 | 6.0 | 0.00 | 0.00 | 0.00 | 67 | 1015.3 |
| 20260504231710 | 44 | 6 | 5.0 | 7.0 | 0.00 | 0.00 | 0.00 | 65 | 1014.9 |
| 20260504231207 | 46 | 69 | 4.0 | 8.0 | 0.00 | 0.00 | 0.00 | 61 | 1015.0 |
| 20260504230703 | 46 | 58 | 2.0 | 13.0 | 0.00 | 0.00 | 0.00 | 58 | 1015.0 |
| 20260504230202 | 47 | 33 | 5.0 | 10.0 | 0.00 | 0.00 | 0.00 | 55 | 1015.0 |
| 20260504225700 | 47 | 334 | 4.0 | 6.0 | 0.00 | 0.00 | 0.00 | 54 | 1014.9 |
| 20260504225155 | 48 | 81 | 4.0 | 6.0 | 0.00 | 0.00 | 0.00 | 51 | 1014.8 |
| 20260504224653 | 48 | 81 | 1.0 | 2.0 | 0.00 | 0.00 | 0.00 | 51 | 1014.8 |
| 20260504224149 | 49 | 123 | 2.0 | 6.0 | 0.00 | 0.00 | 0.00 | 51 | 1014.7 |
| 20260504223647 | 49 | 86 | 0.0 | 2.0 | 0.00 | 0.00 | 0.00 | 53 | 1014.8 |
| 20260504223142 | 49 | 46 | 4.0 | 4.0 | 0.00 | 0.00 | 0.00 | 51 | 1014.8 |
| 20260504222639 | 50 | 15 | 2.0 | 7.0 | 0.00 | 0.00 | 0.00 | 49 | 1014.7 |
| 20260504222136 | 50 | 102 | 2.0 | 3.0 | 0.00 | 0.00 | 0.00 | 49 | 1014.8 |
| 20260504221633 | 51 | 160 | 2.0 | 3.0 | 0.00 | 0.00 | 0.00 | 39 | 1014.7 |
| 20260504221130 | 52 | 66 | 2.0 | 4.0 | 0.00 | 0.00 | 0.00 | 37 | 1014.5 |
| 20260504220626 | 52 | 91 | 0.0 | 1.0 | 0.00 | 0.00 | 0.00 | 36 | 1014.7 |
| 20260504220125 | 54 | 268 | 2.0 | 3.0 | 0.00 | 0.00 | 0.00 | 34 | 1014.4 |
| 20260504215620 | 55 | 92 | 1.0 | 7.0 | 0.00 | 0.00 | 0.00 | 33 | 1014.4 |
| 20260504215118 | 56 | 82 | 0.0 | 2.0 | 0.00 | 0.00 | 0.00 | 31 | 1014.3 |
| 20260504214614 | 55 | 61 | 1.0 | 3.0 | 0.00 | 0.00 | 0.00 | 29 | 1014.3 |
| 20260504214110 | 56 | 103 | 4.0 | 6.0 | 0.00 | 0.00 | 0.00 | 30 | 1014.4 |
| 20260504213607 | 58 | 47 | 3.0 | 6.0 | 0.00 | 0.00 | 0.00 | 30 | 1014.2 |
| 20260504213104 | 56 | 248 | 3.0 | 4.0 | 0.00 | 0.00 | 0.00 | 33 | 1014.2 |
| 20260504212559 | 57 | 22 | 3.0 | 4.0 | 0.00 | 0.00 | 0.00 | 32 | 1014.2 |
| 20260504212057 | 55 | 77 | 1.0 | 2.0 | 0.00 | 0.00 | 0.00 | 34 | 1014.5 |
| 20260504211554 | 53 | 65 | 2.0 | 3.0 | 0.00 | 0.00 | 0.00 | 35 | 1014.5 |
| 20260504211051 | 53 | 80 | 0.0 | 1.0 | 0.00 | 0.00 | 0.00 | 35 | 1014.8 |
| 20260504210548 | 52 | 48 | 0.0 | 3.0 | 0.00 | 0.00 | 0.00 | 35 | 1014.8 |
| 20260504210044 | 52 | 72 | 1.0 | 4.0 | 0.00 | 0.00 | 0.00 | 38 | 1014.8 |
| 20260504205542 | 52 | 66 | 0.0 | 4.0 | 0.00 | 0.00 | 0.00 | 38 | 1015.0 |
| 20260504205040 | 52 | 77 | 1.0 | 7.0 | 0.00 | 0.00 | 0.00 | 38 | 1015.0 |
| 20260504204538 | 52 | 43 | 1.0 | 3.0 | 0.00 | 0.00 | 0.00 | 36 | 1014.9 |
| 20260504204037 | 52 | 77 | 0.0 | 2.0 | 0.00 | 0.00 | 0.00 | 38 | 1015.0 |
| 20260504203534 | 52 | 58 | 0.0 | 1.0 | 0.00 | 0.00 | 0.00 | 37 | 1015.2 |
| 20260504203032 | 52 | 87 | 0.0 | 0.0 | 0.00 | 0.00 | 0.00 | 39 | 1014.9 |
| 20260504202527 | 52 | 73 | 0.0 | 0.0 | 0.00 | 0.00 | 0.00 | 37 | 1015.2 |
| 20260504202024 | 51 | 85 | 0.0 | 2.0 | 0.00 | 0.00 | 0.00 | 38 | 1015.3 |
| 20260504201521 | 51 | 103 | 1.0 | 1.0 | 0.00 | 0.00 | 0.00 | 38 | 1015.3 |
| 20260504201019 | 51 | 106 | 2.0 | 3.0 | 0.00 | 0.00 | 0.00 | 37 | 1015.4 |
| 20260504200515 | 51 | 73 | 1.0 | 6.0 | 0.00 | 0.00 | 0.00 | 39 | 1015.6 |
| 20260504200012 | 51 | 67 | 2.0 | 7.0 | 0.00 | 0.00 | 0.00 | 39 | 1015.3 |
| 20260504195508 | 51 | 100 | 1.0 | 4.0 | 0.00 | 0.00 | 0.00 | 39 | 1015.3 |
| 20260504195005 | 51 | 102 | 2.0 | 2.0 | 0.00 | 0.00 | 0.00 | 38 | 1015.4 |
| 20260504194501 | 51 | 125 | 4.0 | 4.0 | 0.00 | 0.00 | 0.00 | 39 | 1015.6 |
| 20260504193956 | 50 | 139 | 3.0 | 4.0 | 0.00 | 0.00 | 0.00 | 42 | 1015.8 |
| 20260504193454 | 50 | 97 | 0.0 | 3.0 | 0.00 | 0.00 | 0.00 | 41 | 1015.7 |
| 20260504192953 | 51 | 96 | 0.0 | 2.0 | 0.00 | 0.00 | 0.00 | 41 | 1015.6 |
| 20260504192449 | 50 | 110 | 1.0 | 4.0 | 0.00 | 0.00 | 0.00 | 40 | 1015.4 |
| 20260504191948 | 50 | 128 | 1.0 | 2.0 | 0.00 | 0.00 | 0.00 | 40 | 1015.8 |
| 20260504191446 | 50 | 112 | 1.0 | 6.0 | 0.00 | 0.00 | 0.00 | 39 | 1015.8 |
| 20260504190941 | 51 | 155 | 2.0 | 3.0 | 0.00 | 0.00 | 0.00 | 39 | 1015.7 |
| 20260504190437 | 51 | 148 | 4.0 | 4.0 | 0.00 | 0.00 | 0.00 | 40 | 1015.7 |
| 20260504185934 | 51 | 106 | 1.0 | 2.0 | 0.00 | 0.00 | 0.00 | 43 | 1015.7 |
| 20260504185431 | 51 | 93 | 1.0 | 2.0 | 0.00 | 0.00 | 0.00 | 41 | 1015.8 |
| 20260504184927 | 51 | 88 | 0.0 | 1.0 | 0.00 | 0.00 | 0.00 | 43 | 1015.7 |
| 20260504184423 | 51 | 88 | 1.0 | 3.0 | 0.00 | 0.00 | 0.00 | 43 | 1015.8 |
| 20260504183919 | 52 | 63 | 2.0 | 4.0 | 0.00 | 0.00 | 0.00 | 41 | 1015.7 |
| 20260504183416 | 52 | 100 | 0.0 | 2.0 | 0.00 | 0.00 | 0.00 | 41 | 1015.6 |
| 20260504182914 | 52 | 97 | 0.0 | 2.0 | 0.00 | 0.00 | 0.00 | 42 | 1015.7 |
| 20260504182411 | 52 | 139 | 4.0 | 4.0 | 0.00 | 0.00 | 0.00 | 42 | 1015.8 |
| 20260504181908 | 53 | 351 | 3.0 | 6.0 | 0.00 | 0.00 | 0.00 | 37 | 1015.7 |
| 20260504181405 | 54 | 88 | 1.0 | 6.0 | 0.00 | 0.00 | 0.00 | 33 | 1015.6 |
| 20260504180904 | 54 | 83 | 0.0 | 3.0 | 0.00 | 0.00 | 0.00 | 32 | 1015.7 |
| 20260504180402 | 56 | 60 | 2.0 | 4.0 | 0.00 | 0.00 | 0.00 | 30 | 1015.6 |
| 20260504175900 | 56 | 107 | 3.0 | 6.0 | 0.00 | 0.00 | 0.00 | 30 | 1015.6 |
| 20260504175356 | 53 | 39 | 2.0 | 2.0 | 0.00 | 0.00 | 0.00 | 34 | 1015.7 |
| 20260504174854 | 53 | 63 | 1.0 | 4.0 | 0.00 | 0.00 | 0.00 | 32 | 1015.8 |
| 20260504174352 | 53 | 78 | 0.0 | 2.0 | 0.00 | 0.00 | 0.00 | 34 | 1015.7 |
| 20260504173849 | 54 | 188 | 3.0 | 4.0 | 0.00 | 0.00 | 0.00 | 35 | 1015.9 |
| 20260504173345 | 54 | 109 | 0.0 | 4.0 | 0.00 | 0.00 | 0.00 | 33 | 1015.9 |
| 20260504172842 | 54 | 286 | 3.0 | 4.0 | 0.00 | 0.00 | 0.00 | 31 | 1015.9 |
| 20260504172339 | 53 | 75 | 1.0 | 2.0 | 0.00 | 0.00 | 0.00 | 33 | 1015.9 |
| 20260504171835 | 54 | 78 | 0.0 | 4.0 | 0.00 | 0.00 | 0.00 | 32 | 1016.2 |
| 20260504171332 | 53 | 77 | 2.0 | 4.0 | 0.00 | 0.00 | 0.00 | 33 | 1015.9 |
| 20260504170829 | 53 | 324 | 1.0 | 3.0 | 0.00 | 0.00 | 0.00 | 37 | 1016.1 |
| 20260504170326 | 52 | 79 | 2.0 | 3.0 | 0.00 | 0.00 | 0.00 | 38 | 1016.2 |
| 20260504160244 | 50 | 105 | 3.0 | 3.0 | 0.00 | 0.00 | 0.00 | 39 | 1016.3 |
| 20260504150710 | 47 | 89 | 0.0 | 3.0 | 0.00 | 0.00 | 0.00 | 51 | 1016.4 |
| 20260504150207 | 46 | 105 | 1.0 | 2.0 | 0.00 | 0.00 | 0.00 | 49 | 1016.6 |
| 20260504141136 | 43 | 95 | 0.0 | 0.0 | 0.00 | 0.00 | 0.00 | 51 | 1016.7 |
| 20260504140632 | 43 | 109 | 0.0 | 1.0 | 0.00 | 0.00 | 0.00 | 49 | 1016.6 |
| 20260504140128 | 42 | 94 | 0.0 | 0.0 | 0.00 | 0.00 | 0.00 | 49 | 1016.6 |
| 20260504130556 | 38 | 69 | 0.0 | 0.0 | 0.00 | 0.00 | 0.00 | 50 | 1016.8 |
| 20260504110444 | 40 | 69 | 0.0 | 0.0 | 0.00 | 0.00 | 0.00 | 45 | 1016.2 |
| 20260504100406 | 40 | 77 | 0.0 | 0.0 | 0.00 | 0.00 | 0.00 | 43 | 1016.4 |
| 20260504081759 | 42 | 71 | 0.0 | 0.0 | 0.00 | 0.00 | 0.00 | 35 | 1016.2 |
| 20260504081256 | 42 | 74 | 0.0 | 1.0 | 0.00 | 0.00 | 0.00 | 35 | 1016.4 |
| 20260504080753 | 42 | 69 | 0.0 | 0.0 | 0.00 | 0.00 | 0.00 | 35 | 1016.4 |
| 20260504080249 | 42 | 69 | 0.0 | 0.0 | 0.00 | 0.00 | 0.00 | 38 | 1016.6 |
| 20260504070217 | 42 | 73 | 0.0 | 0.0 | 0.00 | 0.00 | 0.00 | 34 | 1016.9 |
| 20260504060137 | 42 | 69 | 0.0 | 0.0 | 0.00 | 0.00 | 0.00 | 35 | 1017.5 |
| 20260504050605 | 43 | 70 | 0.0 | 0.0 | 0.00 | 0.00 | 0.00 | 38 | 1017.7 |
| 20260504045559 | 43 | 70 | 0.0 | 0.0 | 0.00 | 0.00 | 0.00 | 39 | 1017.8 |
| 20260504045054 | 44 | 70 | 0.0 | 0.0 | 0.00 | 0.00 | 0.00 | 37 | 1017.8 |
| 20260504044552 | 44 | 71 | 0.0 | 0.0 | 0.00 | 0.00 | 0.00 | 36 | 1018.0 |
| 20260504044049 | 44 | 70 | 0.0 | 0.0 | 0.00 | 0.00 | 0.00 | 35 | 1017.8 |
| 20260504043546 | 43 | 70 | 0.0 | 0.0 | 0.00 | 0.00 | 0.00 | 38 | 1017.7 |
| 20260504043043 | 43 | 68 | 0.0 | 0.0 | 0.00 | 0.00 | 0.00 | 37 | 1018.0 |
| 20260504042540 | 44 | 67 | 0.0 | 0.0 | 0.00 | 0.00 | 0.00 | 36 | 1017.8 |
| 20260504042037 | 44 | 65 | 0.0 | 0.0 | 0.00 | 0.00 | 0.00 | 35 | 1017.7 |
| 20260504041533 | 44 | 65 | 0.0 | 0.0 | 0.00 | 0.00 | 0.00 | 36 | 1017.8 |
| 20260504041029 | 44 | 64 | 0.0 | 0.0 | 0.00 | 0.00 | 0.00 | 38 | 1017.8 |
| 20260504040527 | 45 | 65 | 0.0 | 0.0 | 0.00 | 0.00 | 0.00 | 35 | 1017.8 |
| 20260504040023 | 45 | 65 | 0.0 | 0.0 | 0.00 | 0.00 | 0.00 | 36 | 1017.6 |
| 20260504035520 | 44 | 65 | 0.0 | 0.0 | 0.00 | 0.00 | 0.00 | 36 | 1017.8 |
| 20260504035016 | 45 | 65 | 0.0 | 0.0 | 0.00 | 0.00 | 0.00 | 35 | 1017.6 |
| 20260504034514 | 45 | 65 | 0.0 | 0.0 | 0.00 | 0.00 | 0.00 | 34 | 1017.7 |
| 20260504034011 | 46 | 65 | 0.0 | 0.0 | 0.00 | 0.00 | 0.00 | 36 | 1018.0 |
| 20260504033509 | 46 | 65 | 0.0 | 0.0 | 0.00 | 0.00 | 0.00 | 35 | 1018.1 |
| 20260504033006 | 46 | 65 | 0.0 | 0.0 | 0.00 | 0.00 | 0.00 | 33 | 1018.0 |
| 20260504032503 | 46 | 65 | 0.0 | 0.0 | 0.00 | 0.00 | 0.00 | 35 | 1017.8 |
| 20260504031959 | 47 | 65 | 0.0 | 0.0 | 0.00 | 0.00 | 0.00 | 34 | 1017.7 |
| 20260504031456 | 47 | 66 | 0.0 | 0.0 | 0.00 | 0.00 | 0.00 | 33 | 1017.7 |
| 20260504030953 | 47 | 66 | 0.0 | 0.0 | 0.00 | 0.00 | 0.00 | 32 | 1017.7 |
| 20260504030450 | 47 | 65 | 0.0 | 0.0 | 0.00 | 0.00 | 0.00 | 32 | 1018.0 |
| 20260504025946 | 47 | 65 | 0.0 | 0.0 | 0.00 | 0.00 | 0.00 | 33 | 1017.8 |
| 20260504025443 | 47 | 65 | 0.0 | 0.0 | 0.00 | 0.00 | 0.00 | 31 | 1017.8 |
| 20260504024940 | 48 | 66 | 0.0 | 0.0 | 0.00 | 0.00 | 0.00 | 32 | 1017.7 |
| 20260504024437 | 47 | 65 | 0.0 | 0.0 | 0.00 | 0.00 | 0.00 | 32 | 1018.0 |
| 20260504023934 | 47 | 66 | 0.0 | 0.0 | 0.00 | 0.00 | 0.00 | 36 | 1017.6 |
| 20260504023430 | 47 | 66 | 0.0 | 0.0 | 0.00 | 0.00 | 0.00 | 36 | 1017.8 |
| 20260504022926 | 48 | 67 | 0.0 | 0.0 | 0.00 | 0.00 | 0.00 | 36 | 1017.7 |
| 20260504022423 | 48 | 68 | 0.0 | 0.0 | 0.00 | 0.00 | 0.00 | 34 | 1017.6 |
| 20260504021919 | 48 | 68 | 0.0 | 0.0 | 0.00 | 0.00 | 0.00 | 32 | 1017.8 |
| 20260504021417 | 49 | 76 | 0.0 | 0.0 | 0.00 | 0.00 | 0.00 | 33 | 1017.8 |
| 20260504020914 | 49 | 72 | 0.0 | 0.0 | 0.00 | 0.00 | 0.00 | 34 | 1017.7 |
| 20260504020410 | 50 | 75 | 0.0 | 0.0 | 0.00 | 0.00 | 0.00 | 30 | 1018.0 |
| 20260504015907 | 50 | 74 | 0.0 | 0.0 | 0.00 | 0.00 | 0.00 | 32 | 1017.8 |
| 20260504015403 | 50 | 68 | 0.0 | 0.0 | 0.00 | 0.00 | 0.00 | 34 | 1017.8 |
| 20260504014859 | 50 | 76 | 0.0 | 0.0 | 0.00 | 0.00 | 0.00 | 31 | 1018.1 |
| 20260504014355 | 51 | 76 | 0.0 | 0.0 | 0.00 | 0.00 | 0.00 | 30 | 1017.8 |
| 20260504013853 | 52 | 70 | 0.0 | 0.0 | 0.00 | 0.00 | 0.00 | 29 | 1018.0 |
| 20260504013350 | 52 | 73 | 0.0 | 0.0 | 0.00 | 0.00 | 0.00 | 28 | 1018.1 |
| 20260504012847 | 52 | 76 | 0.0 | 2.0 | 0.00 | 0.00 | 0.00 | 28 | 1017.8 |
| 20260504012345 | 53 | 78 | 1.0 | 2.0 | 0.00 | 0.00 | 0.00 | 27 | 1018.0 |
| 20260504011842 | 53 | 69 | 1.0 | 2.0 | 0.00 | 0.00 | 0.00 | 26 | 1018.0 |
| 20260504011338 | 53 | 99 | 0.0 | 2.0 | 0.00 | 0.00 | 0.00 | 27 | 1018.0 |
| 20260504010834 | 53 | 79 | 1.0 | 2.0 | 0.00 | 0.00 | 0.00 | 26 | 1018.0 |
| 20260504010330 | 54 | 78 | 0.0 | 3.0 | 0.00 | 0.00 | 0.00 | 26 | 1018.2 |
| 20260504005827 | 54 | 110 | 0.0 | 1.0 | 0.00 | 0.00 | 0.00 | 26 | 1018.2 |
| 20260504005324 | 54 | 63 | 0.0 | 1.0 | 0.00 | 0.00 | 0.00 | 25 | 1018.2 |
| 20260504004821 | 55 | 100 | 0.0 | 0.0 | 0.00 | 0.00 | 0.00 | 26 | 1018.3 |
| 20260504004319 | 55 | 82 | 1.0 | 2.0 | 0.00 | 0.00 | 0.00 | 25 | 1018.6 |